| time (UTC) | temp F | wind direction | speed knots | gust knots | rain 1hr in | rain 24hr in | rain mn in | humidity % | barometer mb |
| 20260510104507 | 53 | 196 | 2.6 | 7.8 | 0.00 | 0.25 | 0.00 | 1 | 1010.1 |
| 20260510103001 | 53 | 195 | 6.1 | 11.3 | 0.00 | 0.25 | 0.00 | 1 | 1009.7 |
| 20260510101600 | 52 | 169 | 3.5 | 7.0 | 0.00 | 0.25 | 0.00 | 1 | 1009.4 |
| 20260510100053 | 52 | 172 | 3.5 | 5.2 | 0.00 | 0.25 | 0.00 | 1 | 1009.3 |
| 20260510094600 | 52 | 148 | 2.6 | 7.0 | 0.00 | 0.39 | 0.00 | 1 | 1009.0 |
| 20260510093056 | 52 | 163 | 3.5 | 6.1 | 0.00 | 0.39 | 0.00 | 1 | 1009.2 |
| 20260510091544 | 52 | 158 | 1.7 | 7.0 | 0.00 | 0.39 | 0.00 | 1 | 1008.8 |
| 20260510090035 | 52 | 148 | 3.5 | 7.8 | 0.00 | 0.39 | 0.00 | 1 | 1008.7 |
| 20260510084531 | 52 | 167 | 3.5 | 8.7 | 0.00 | 0.51 | 0.00 | 1 | 1008.4 |
| 20260510083026 | 52 | 154 | 5.2 | 10.4 | 0.00 | 0.51 | 0.00 | 1 | 1008.5 |
| 20260510081524 | 52 | 109 | 5.2 | 12.2 | 0.00 | 0.51 | 0.00 | 1 | 1008.6 |
| 20260510080022 | 52 | 155 | 2.6 | 7.8 | 0.00 | 0.51 | 0.00 | 1 | 1008.9 |
| 20260510074513 | 52 | 134 | 3.5 | 7.0 | 0.00 | 0.54 | 0.00 | 1 | 1009.4 |
| 20260510073009 | 52 | 144 | 3.5 | 6.1 | 0.00 | 0.54 | 0.00 | 1 | 1009.7 |
| 20260510071507 | 52 | 156 | 4.3 | 8.7 | 0.00 | 0.54 | 0.00 | 1 | 1009.9 |
| 20260510070010 | 52 | 201 | 4.3 | 7.0 | 0.00 | 0.54 | 0.00 | 1 | 1009.8 |
| 20260510064501 | 52 | 193 | 3.5 | 7.8 | 0.00 | 0.54 | 0.00 | 1 | 1009.3 |
| 20260510063057 | 52 | 212 | 5.2 | 10.4 | 0.00 | 0.54 | 0.00 | 1 | 1009.0 |
| 20260510061555 | 52 | 184 | 7.0 | 9.6 | 0.00 | 0.54 | 0.00 | 1 | 1008.8 |
| 20260510060053 | 52 | 164 | 5.2 | 9.6 | 0.00 | 0.54 | 0.00 | 1 | 1009.0 |
| 20260510054548 | 51 | 146 | 2.6 | 6.1 | 0.00 | 0.54 | 0.00 | 1 | 1009.0 |
| 20260510053057 | 51 | 163 | 0.9 | 5.2 | 0.00 | 0.54 | 0.00 | 1 | 1009.3 |
| 20260510051544 | 52 | 168 | 2.6 | 7.8 | 0.00 | 0.54 | 0.00 | 1 | 1009.4 |
| 20260510050034 | 53 | 161 | 6.1 | 12.2 | 0.00 | 0.54 | 0.00 | 1 | 1009.2 |
| 20260510044529 | 52 | 158 | 5.2 | 10.4 | 0.00 | 0.54 | 0.00 | 1 | 1008.9 |
| 20260510043039 | 52 | 158 | 6.1 | 8.7 | 0.00 | 0.54 | 0.00 | 1 | 1008.8 |
| 20260510041526 | 53 | 159 | 7.0 | 11.3 | 0.00 | 0.54 | 0.00 | 1 | 1008.9 |
| 20260510040031 | 53 | 175 | 5.2 | 11.3 | 0.00 | 0.54 | 0.00 | 1 | 1009.1 |
| 20260510034515 | 52 | 183 | 2.6 | 5.2 | 0.00 | 0.54 | 0.54 | 1 | 1009.2 |
| 20260510033016 | 53 | 188 | 5.2 | 10.4 | 0.00 | 0.54 | 0.54 | 1 | 1009.1 |
| 20260510031518 | 53 | 159 | 6.1 | 11.3 | 0.00 | 0.54 | 0.54 | 1 | 1009.1 |
| 20260510030013 | 53 | 169 | 4.3 | 8.7 | 0.00 | 0.54 | 0.54 | 1 | 1009.0 |
| 20260510024515 | 53 | 169 | 4.3 | 7.0 | 0.00 | 0.54 | 0.54 | 1 | 1009.1 |
| 20260510023012 | 53 | 142 | 3.5 | 7.8 | 0.00 | 0.54 | 0.54 | 1 | 1009.0 |
| 20260510021523 | 53 | 173 | 3.5 | 7.8 | 0.00 | 0.54 | 0.54 | 1 | 1009.1 |
| 20260510020011 | 53 | 177 | 4.3 | 7.8 | 0.00 | 0.54 | 0.54 | 1 | 1009.3 |
| 20260510014511 | 53 | 171 | 6.1 | 9.6 | 0.00 | 0.54 | 0.54 | 1 | 1009.0 |
| 20260510013014 | 53 | 115 | 4.3 | 11.3 | 0.00 | 0.54 | 0.54 | 1 | 1009.0 |
| 20260510011507 | 53 | 180 | 6.1 | 10.4 | 0.00 | 0.54 | 0.54 | 1 | 1008.8 |
| 20260510010002 | 53 | 144 | 4.3 | 8.7 | 0.00 | 0.54 | 0.54 | 1 | 1008.8 |
| 20260510004601 | 53 | 132 | 3.5 | 7.0 | 0.00 | 0.54 | 0.54 | 1 | 1008.9 |
| 20260510003055 | 53 | 124 | 2.6 | 8.7 | 0.00 | 0.54 | 0.54 | 1 | 1008.5 |
| 20260510001549 | 53 | 134 | 2.6 | 6.1 | 0.00 | 0.54 | 0.54 | 1 | 1008.2 |
| 20260510000051 | 53 | 157 | 5.2 | 8.7 | 0.00 | 0.54 | 0.54 | 1 | 1008.2 |
| 20260509234543 | 54 | 184 | 5.2 | 11.3 | 0.00 | 0.54 | 0.54 | 1 | 1007.7 |
| 20260509233040 | 54 | 172 | 5.2 | 8.7 | 0.00 | 0.54 | 0.54 | 1 | 1007.7 |
| 20260509231540 | 54 | 113 | 4.3 | 8.7 | 0.00 | 0.54 | 0.54 | 1 | 1007.6 |
| 20260509230034 | 54 | 150 | 7.0 | 10.4 | 0.00 | 0.54 | 0.54 | 1 | 1007.8 |
| 20260509224527 | 54 | 169 | 7.0 | 13.9 | 0.00 | 0.54 | 0.54 | 1 | 1007.7 |
| 20260509223026 | 54 | 152 | 3.5 | 8.7 | 0.00 | 0.54 | 0.54 | 1 | 1008.1 |
| 20260509221522 | 54 | 161 | 6.1 | 12.2 | 0.00 | 0.54 | 0.54 | 1 | 1007.9 |
| 20260509220021 | 54 | 161 | 7.0 | 11.3 | 0.00 | 0.54 | 0.54 | 1 | 1007.9 |
| 20260509214515 | 54 | 183 | 5.2 | 11.3 | 0.00 | 0.54 | 0.54 | 1 | 1008.1 |
| 20260509213023 | 54 | 173 | 5.2 | 9.6 | 0.00 | 0.54 | 0.54 | 1 | 1008.0 |
| 20260509211508 | 54 | 178 | 4.3 | 13.9 | 0.00 | 0.54 | 0.54 | 1 | 1008.2 |
| 20260509210002 | 54 | 206 | 7.0 | 12.2 | 0.00 | 0.54 | 0.54 | 1 | 1008.4 |
| 20260509204558 | 54 | 194 | 5.2 | 9.6 | 0.00 | 0.54 | 0.54 | 1 | 1008.5 |
| 20260509203102 | 54 | 207 | 6.1 | 12.2 | 0.00 | 0.54 | 0.54 | 1 | 1008.7 |
| 20260509201548 | 54 | 221 | 7.8 | 13.9 | 0.01 | 0.54 | 0.54 | 1 | 1008.7 |
| 20260509200045 | 54 | 218 | 8.7 | 13.0 | 0.02 | 0.54 | 0.54 | 1 | 1008.9 |
| 20260509194540 | 54 | 209 | 8.7 | 16.5 | 0.04 | 0.54 | 0.54 | 1 | 1009.1 |
| 20260509193037 | 54 | 205 | 7.0 | 13.9 | 0.05 | 0.54 | 0.54 | 1 | 1009.4 |
| 20260509191545 | 54 | 246 | 7.0 | 18.2 | 0.06 | 0.53 | 0.53 | 1 | 1009.4 |
| 20260509190030 | 54 | 151 | 4.3 | 7.8 | 0.06 | 0.52 | 0.52 | 1 | 1009.3 |
| 20260509184534 | 54 | 182 | 4.3 | 7.0 | 0.04 | 0.50 | 0.50 | 1 | 1009.4 |
| 20260509183029 | 53 | 168 | 4.3 | 7.0 | 0.03 | 0.48 | 0.48 | 1 | 1009.5 |
| 20260509181516 | 54 | 152 | 2.6 | 6.1 | 0.03 | 0.47 | 0.47 | 1 | 1009.5 |
| 20260509180015 | 53 | 128 | 3.5 | 8.7 | 0.03 | 0.46 | 0.46 | 1 | 1009.4 |
| 20260509174510 | 53 | 86 | 3.5 | 7.0 | 0.04 | 0.46 | 0.46 | 1 | 1009.5 |
| 20260509173003 | 53 | 86 | 1.7 | 3.5 | 0.04 | 0.45 | 0.45 | 1 | 1009.7 |
| 20260509171600 | 52 | 86 | 1.7 | 3.5 | 0.03 | 0.44 | 0.44 | 1 | 1009.8 |
| 20260509170100 | 51 | 86 | 2.6 | 5.2 | 0.03 | 0.43 | 0.43 | 1 | 1010.0 |
| 20260509164551 | 51 | 86 | 1.7 | 3.5 | 0.02 | 0.42 | 0.42 | 1 | 1010.3 |
| 20260509163046 | 50 | 86 | 0.0 | 1.7 | 0.02 | 0.41 | 0.41 | 1 | 1010.4 |
| 20260509161541 | 50 | 86 | 0.9 | 2.6 | 0.02 | 0.41 | 0.41 | 1 | 1010.6 |
| 20260509160038 | 50 | 86 | 0.0 | 2.6 | 0.01 | 0.40 | 0.40 | 1 | 1010.7 |
| 20260509154533 | 49 | 86 | 0.0 | 1.7 | 0.02 | 0.40 | 0.40 | 1 | 1010.8 |
| 20260509153042 | 48 | 86 | 0.9 | 2.6 | 0.01 | 0.39 | 0.39 | 1 | 1010.9 |
| 20260509151524 | 48 | 86 | 0.0 | 1.7 | 0.02 | 0.39 | 0.39 | 1 | 1011.1 |
| 20260509150023 | 47 | 86 | 0.9 | 2.6 | 0.02 | 0.39 | 0.39 | 1 | 1011.3 |
| 20260509144529 | 47 | 86 | 0.0 | 1.7 | 0.02 | 0.38 | 0.38 | 1 | 1011.3 |
| 20260509143020 | 47 | 86 | 0.9 | 3.5 | 0.02 | 0.38 | 0.38 | 1 | 1011.5 |
| 20260509141515 | 47 | 86 | 0.9 | 2.6 | 0.01 | 0.37 | 0.37 | 1 | 1011.3 |
| 20260509140013 | 47 | 86 | 0.9 | 2.6 | 0.01 | 0.37 | 0.37 | 1 | 1011.1 |
| 20260509134507 | 47 | 86 | 0.0 | 2.6 | 0.00 | 0.36 | 0.36 | 1 | 1010.9 |
| 20260509133004 | 47 | 86 | 0.0 | 1.7 | 0.00 | 0.36 | 0.36 | 1 | 1010.9 |
| 20260509131600 | 47 | 86 | 0.9 | 1.7 | 0.00 | 0.36 | 0.36 | 1 | 1011.0 |
| 20260509130105 | 46 | 86 | 0.0 | 2.6 | 0.00 | 0.36 | 0.36 | 1 | 1011.1 |
| 20260509124554 | 47 | 86 | 0.9 | 5.2 | 0.00 | 0.36 | 0.36 | 1 | 1011.3 |
| 20260509123044 | 47 | 86 | 0.0 | 1.7 | 0.00 | 0.36 | 0.36 | 1 | 1011.2 |
| 20260509121539 | 46 | 86 | 0.9 | 5.2 | 0.00 | 0.36 | 0.36 | 1 | 1011.1 |
| 20260509120035 | 46 | 86 | 1.7 | 5.2 | 0.00 | 0.36 | 0.36 | 1 | 1011.2 |
| 20260509114531 | 46 | 86 | 1.7 | 3.5 | 0.00 | 0.36 | 0.36 | 1 | 1011.3 |
| 20260509113027 | 45 | 86 | 0.9 | 5.2 | 0.01 | 0.36 | 0.36 | 1 | 1011.4 |
| 20260509111522 | 45 | 104 | 4.3 | 7.8 | 0.03 | 0.36 | 0.36 | 1 | 1011.3 |
| 20260509110017 | 45 | 78 | 4.3 | 9.6 | 0.06 | 0.36 | 0.36 | 1 | 1011.3 |